GW1238 Weather Reports


Display with metric or nautical units.
time (UTC)temp
F
wind
direction
speed
MPH
gust
MPH
rain 1hr
in
rain 24hr
in
rain mn
in
humidity
%
barometer
mb
20260510123315 64 99 1.0 1.0 0.00 0.00 0.00 98 1020.6
20260510122811 65 106 0.0 0.0 0.00 0.00 0.00 98 1020.7
20260510122307 64 173 0.0 0.0 0.00 0.00 0.00 99 1020.6
20260510121804 62 311 0.0 0.0 0.00 0.00 0.00 99 1020.6
20260510121302 61 334 0.0 0.0 0.00 0.00 0.00 99 1020.5
20260510120758 60 313 0.0 0.0 0.00 0.00 0.00 99 1020.5
20260510120255 60 307 0.0 0.0 0.00 0.00 0.00 99 1020.2
20260510115751 59 300 1.0 1.0 0.00 0.00 0.00 99 1020.5
20260510115249 58 306 1.0 2.0 0.00 0.00 0.00 99 1020.3
20260510114744 57 308 2.0 2.0 0.00 0.00 0.00 99 1020.5
20260510114242 57 296 2.0 2.0 0.00 0.00 0.00 99 1020.2
20260510113737 57 299 2.0 2.0 0.00 0.00 0.00 99 1020.1
20260510113234 58 290 1.0 2.0 0.00 0.00 0.00 99 1020.0
20260510112730 57 296 2.0 2.0 0.00 0.00 0.00 99 1020.1
20260510112227 57 294 1.0 2.0 0.00 0.00 0.00 99 1020.0
20260510111723 57 296 1.0 2.0 0.00 0.00 0.00 99 1019.7
20260510111220 56 283 1.0 2.0 0.00 0.00 0.00 99 1019.7
20260510110720 56 299 2.0 3.0 0.00 0.00 0.00 99 1019.5
20260510110218 56 292 2.0 3.0 0.00 0.00 0.00 99 1019.4
20260510105717 56 288 2.0 3.0 0.00 0.00 0.00 99 1019.2
20260510105212 56 301 2.0 2.0 0.00 0.00 0.00 99 1019.3
20260510104709 56 299 2.0 2.0 0.00 0.00 0.00 99 1019.1
20260510104206 56 293 2.0 2.0 0.00 0.00 0.00 99 1019.1
20260510103703 56 291 2.0 3.0 0.00 0.00 0.00 99 1019.1
20260510103200 56 295 2.0 3.0 0.00 0.00 0.00 99 1018.8
20260510102700 56 295 2.0 2.0 0.00 0.00 0.00 99 1018.8
20260510102156 56 294 2.0 2.0 0.00 0.00 0.00 99 1018.9
20260510101653 56 300 2.0 2.0 0.00 0.00 0.00 99 1018.9
20260510101152 57 285 2.0 2.0 0.00 0.00 0.00 99 1018.9
20260510100647 57 295 2.0 2.0 0.00 0.00 0.00 99 1019.0
20260510100145 57 298 2.0 2.0 0.00 0.00 0.00 99 1018.8
20260510095640 57 293 1.0 3.0 0.00 0.00 0.00 99 1018.8
20260510095136 57 306 2.0 2.0 0.00 0.00 0.00 99 1019.1
20260510094634 57 296 2.0 2.0 0.00 0.00 0.00 99 1018.7
20260510094131 57 298 2.0 3.0 0.00 0.00 0.00 99 1018.7
20260510093621 57 297 2.0 2.0 0.00 0.00 0.00 99 1018.8
20260510093118 57 287 2.0 2.0 0.00 0.00 0.00 99 1018.7
20260510092615 56 302 2.0 4.0 0.00 0.00 0.00 99 1018.4
20260510092115 57 295 2.0 2.0 0.00 0.00 0.00 99 1018.3
20260510091611 57 295 2.0 2.0 0.00 0.00 0.00 99 1018.4
20260510091107 57 300 2.0 2.0 0.00 0.00 0.00 99 1018.3
20260510090605 57 295 2.0 2.0 0.00 0.00 0.00 99 1018.2
20260510090100 57 290 2.0 2.0 0.00 0.00 0.00 99 1018.2
20260510085555 57 294 2.0 3.0 0.00 0.00 0.00 99 1018.1
20260510085051 57 298 2.0 2.0 0.00 0.00 0.00 99 1018.2
20260510084548 57 294 2.0 4.0 0.00 0.00 0.00 99 1018.0
20260510084045 57 289 2.0 2.0 0.00 0.00 0.00 99 1018.0
20260510083541 57 294 2.0 3.0 0.00 0.00 0.00 99 1017.9
20260510083038 57 291 2.0 3.0 0.00 0.00 0.00 99 1018.0
20260510082535 57 299 3.0 3.0 0.00 0.00 0.00 99 1017.6
20260510082030 57 296 2.0 2.0 0.00 0.00 0.00 99 1017.8
20260510081525 57 294 2.0 3.0 0.00 0.00 0.00 99 1017.8
20260510081021 57 296 3.0 3.0 0.00 0.00 0.00 99 1017.7
20260510080520 57 293 2.0 3.0 0.00 0.00 0.00 99 1017.5
20260510080017 57 293 2.0 2.0 0.00 0.00 0.00 99 1017.5
20260510075515 57 294 2.0 3.0 0.00 0.00 0.00 99 1017.4
20260510075011 57 294 2.0 3.0 0.00 0.00 0.00 99 1017.5
20260510074510 57 290 2.0 3.0 0.00 0.00 0.00 99 1017.4
20260510074004 57 298 2.0 2.0 0.00 0.00 0.00 99 1017.5
20260510073501 57 304 2.0 2.0 0.00 0.00 0.00 99 1017.5
20260510072957 57 296 2.0 3.0 0.00 0.00 0.00 99 1017.4
20260510072454 58 306 2.0 3.0 0.00 0.00 0.00 99 1017.4
20260510071950 57 290 2.0 2.0 0.00 0.00 0.00 99 1017.5
20260510071446 57 296 2.0 3.0 0.00 0.00 0.00 99 1017.4
20260510070944 58 290 2.0 2.0 0.00 0.00 0.00 99 1017.4
20260510070442 58 299 2.0 2.0 0.00 0.00 0.00 99 1017.4
20260510065937 58 303 2.0 4.0 0.00 0.00 0.00 99 1017.4
20260510065434 57 295 2.0 4.0 0.00 0.00 0.00 99 1017.3
20260510064930 57 295 2.0 3.0 0.00 0.00 0.00 99 1017.3
20260510064428 58 298 2.0 3.0 0.00 0.00 0.00 98 1017.2
20260510063924 58 298 2.0 3.0 0.00 0.00 0.00 98 1017.3
20260510063421 58 293 2.0 3.0 0.00 0.00 0.00 98 1017.2
20260510062919 58 292 2.0 2.0 0.00 0.00 0.00 98 1017.1
20260510062414 58 283 2.0 2.0 0.00 0.00 0.00 98 1017.3
20260510061910 58 295 2.0 3.0 0.00 0.00 0.00 98 1017.3
20260510061407 58 305 2.0 3.0 0.00 0.00 0.00 98 1017.4
20260510060902 58 310 2.0 3.0 0.00 0.00 0.00 98 1017.5
20260510060359 58 297 2.0 3.0 0.00 0.00 0.00 98 1017.4
20260510055856 58 298 2.0 2.0 0.00 0.00 0.00 98 1017.4
20260510055355 58 295 2.0 3.0 0.00 0.00 0.00 97 1017.4
20260510054854 59 301 2.0 3.0 0.00 0.00 0.00 97 1017.4
20260510054350 59 289 2.0 3.0 0.00 0.00 0.00 97 1017.5
20260510053845 59 284 2.0 3.0 0.00 0.00 0.00 97 1017.5
20260510053340 59 291 1.0 2.0 0.00 0.00 0.00 97 1017.6
20260510052837 59 278 2.0 2.0 0.00 0.00 0.00 97 1017.4
20260510052333 59 278 2.0 2.0 0.00 0.00 0.00 97 1017.8
20260510051829 59 291 2.0 3.0 0.00 0.00 0.00 97 1017.5
20260510051326 59 297 2.0 2.0 0.00 0.00 0.00 97 1017.8
20260510050823 59 292 2.0 3.0 0.00 0.00 0.00 97 1017.7
20260510050319 59 296 2.0 3.0 0.00 0.00 0.00 96 1017.8
20260510045817 59 301 2.0 3.0 0.00 0.00 0.00 96 1017.8
20260510045313 59 296 2.0 3.0 0.00 0.00 0.00 96 1017.7
20260510044811 59 291 2.0 3.0 0.00 0.00 0.00 96 1017.9
20260510044308 59 296 2.0 2.0 0.00 0.00 0.00 96 1017.9
20260510043804 60 288 2.0 2.0 0.00 0.00 0.00 96 1017.7
20260510043300 60 300 2.0 2.0 0.00 0.00 0.00 96 1017.9
20260510042758 60 293 2.0 3.0 0.00 0.00 0.00 96 1017.8
20260510042253 60 301 2.0 3.0 0.00 0.00 0.00 96 1017.9
20260510041750 60 299 2.0 4.0 0.00 0.00 0.00 96 1017.8
20260510041248 60 296 2.0 2.0 0.00 0.00 0.00 96 1017.8
20260510040745 60 302 2.0 3.0 0.00 0.00 0.00 95 1017.6
20260510040241 60 294 2.0 3.0 0.00 0.00 0.00 95 1017.7
20260510035737 60 299 2.0 3.0 0.00 0.00 0.00 95 1017.5
20260510035233 60 302 2.0 3.0 0.00 0.00 0.00 94 1017.6
20260510034729 60 299 2.0 3.0 0.00 0.00 0.00 94 1017.6
20260510034227 60 297 2.0 3.0 0.00 0.00 0.00 94 1017.7
20260510033722 60 291 2.0 3.0 0.00 0.00 0.00 93 1017.6
20260510033221 61 297 2.0 3.0 0.00 0.00 0.00 93 1017.7
20260510032716 61 305 2.0 3.0 0.00 0.00 0.00 93 1017.5
20260510032212 61 300 2.0 3.0 0.00 0.00 0.00 93 1017.6
20260510031707 61 297 2.0 3.0 0.00 0.00 0.00 93 1017.7
20260510031204 61 298 2.0 3.0 0.00 0.00 0.00 93 1017.7
20260510030703 61 299 2.0 3.0 0.00 0.00 0.00 92 1017.7
20260510030202 62 289 2.0 3.0 0.00 0.00 0.00 92 1017.4
20260510025659 62 298 3.0 4.0 0.00 0.00 0.00 91 1017.6
20260510025155 62 299 3.0 3.0 0.00 0.00 0.00 90 1017.2
20260510024653 62 298 2.0 3.0 0.00 0.00 0.00 90 1017.2
20260510024149 62 293 2.0 3.0 0.00 0.00 0.00 90 1017.4
20260510023645 62 297 2.0 2.0 0.00 0.00 0.00 90 1017.2
20260510023143 62 293 1.0 2.0 0.00 0.00 0.00 90 1017.1
20260510022643 62 293 2.0 3.0 0.00 0.00 0.00 90 1017.1
20260510022138 63 290 2.0 3.0 0.00 0.00 0.00 89 1016.9
20260510021634 63 294 2.0 3.0 0.00 0.00 0.00 89 1017.1
20260510021131 63 295 2.0 4.0 0.00 0.00 0.00 88 1017.1
20260510020625 63 297 3.0 3.0 0.00 0.00 0.00 87 1016.9
20260510020121 64 288 2.0 2.0 0.00 0.00 0.00 87 1016.7
20260510015617 64 292 2.0 2.0 0.00 0.00 0.00 87 1016.5
20260510015108 64 298 2.0 2.0 0.00 0.00 0.00 87 1016.9
20260510014603 64 291 2.0 2.0 0.00 0.00 0.00 87 1016.6
20260510014101 64 288 1.0 2.0 0.00 0.00 0.00 87 1016.4
20260510013556 64 297 2.0 3.0 0.00 0.00 0.00 86 1016.4
20260510013052 65 286 2.0 2.0 0.00 0.00 0.00 86 1016.4
20260510012551 65 289 2.0 2.0 0.00 0.00 0.00 86 1016.3
20260510012048 65 290 2.0 2.0 0.00 0.00 0.00 86 1016.2
20260510011547 65 282 1.0 3.0 0.00 0.00 0.00 86 1016.1
20260510011043 66 298 1.0 2.0 0.00 0.00 0.00 85 1015.9
20260510010540 66 284 1.0 2.0 0.00 0.00 0.00 84 1015.7
20260510010037 66 287 1.0 2.0 0.00 0.00 0.00 83 1015.8
20260510005533 66 284 2.0 2.0 0.00 0.00 0.00 83 1015.7
20260510005031 67 285 1.0 2.0 0.00 0.00 0.00 82 1015.8
20260510004528 67 284 1.0 3.0 0.00 0.00 0.00 82 1015.7
20260510004026 67 274 1.0 2.0 0.00 0.00 0.00 81 1015.6
20260510003523 68 261 1.0 2.0 0.00 0.00 0.00 82 1015.3
20260510003018 68 270 1.0 2.0 0.00 0.00 0.00 80 1015.7
20260510002514 68 279 1.0 1.0 0.00 0.00 0.00 79 1015.4
20260510002011 69 280 1.0 1.0 0.00 0.00 0.00 78 1015.3
20260510001508 69 282 1.0 2.0 0.00 0.00 0.00 77 1015.0
20260510001007 69 253 0.0 1.0 0.00 0.00 0.00 77 1015.2
20260510000507 69 267 1.0 1.0 0.00 0.00 0.00 77 1015.0
20260510000004 70 278 1.0 2.0 0.00 0.00 0.00 76 1015.0
20260509235501 72 296 1.0 1.0 0.00 0.00 0.00 73 1015.2
20260509234956 72 189 0.0 1.0 0.00 0.00 0.00 70 1015.3
20260509234454 72 202 0.0 1.0 0.00 0.00 0.00 71 1015.1
20260509233952 73 170 0.0 0.0 0.00 0.00 0.00 69 1015.1
20260509233449 73 250 0.0 1.0 0.00 0.00 0.00 71 1014.9
20260509232944 74 223 0.0 1.0 0.00 0.00 0.00 72 1014.8
20260509232443 74 164 0.0 0.0 0.00 0.00 0.00 68 1014.6
20260509231938 74 248 1.0 3.0 0.00 0.00 0.00 67 1014.9
20260509231435 74 221 1.0 2.0 0.00 0.00 0.00 66 1014.9
20260509230933 74 285 0.0 1.0 0.00 0.00 0.00 67 1014.8
20260509230430 75 208 0.0 1.0 0.00 0.00 0.00 66 1014.9
20260509225926 75 225 1.0 2.0 0.00 0.00 0.00 67 1014.7
20260509225422 75 176 0.0 2.0 0.00 0.00 0.00 66 1014.8
20260509224919 75 210 0.0 3.0 0.00 0.00 0.00 66 1014.7
20260509224414 75 198 0.0 2.0 0.00 0.00 0.00 66 1014.6
20260509223912 76 12 1.0 2.0 0.00 0.00 0.00 68 1014.5
20260509223408 75 245 2.0 2.0 0.00 0.00 0.00 68 1014.4
20260509222906 76 189 2.0 2.0 0.00 0.00 0.00 69 1014.5
20260509222401 76 177 1.0 2.0 0.00 0.00 0.00 68 1014.4
20260509221856 76 205 2.0 2.0 0.00 0.00 0.00 68 1014.2
20260509221353 76 190 4.0 4.0 0.00 0.00 0.00 67 1014.2
20260509220849 76 183 2.0 3.0 0.00 0.00 0.00 68 1014.2
20260509220345 76 214 3.0 3.0 0.00 0.00 0.00 67 1014.0
20260509215840 76 201 1.0 3.0 0.00 0.00 0.00 67 1013.9
20260509215337 76 189 2.0 3.0 0.00 0.00 0.00 67 1014.0
20260509214834 76 188 2.0 2.0 0.00 0.00 0.00 68 1014.2
20260509214331 76 200 1.0 2.0 0.00 0.00 0.00 68 1014.4
20260509213829 76 201 1.0 2.0 0.00 0.00 0.00 68 1014.0
20260509213323 75 187 4.0 7.0 0.00 0.00 0.00 67 1014.2
20260509212821 76 199 4.0 4.0 0.00 0.00 0.00 66 1014.1
20260509212314 76 198 2.0 3.0 0.00 0.00 0.00 66 1014.2
20260509211809 76 189 2.0 3.0 0.00 0.00 0.00 67 1014.2
20260509211305 75 189 3.0 4.0 0.00 0.00 0.00 67 1014.2
20260509210802 76 198 3.0 3.0 0.00 0.00 0.00 66 1014.1
20260509210259 75 165 1.0 4.0 0.00 0.00 0.00 66 1014.1
20260509205758 75 196 4.0 6.0 0.00 0.00 0.00 65 1013.9
20260509205254 76 194 6.0 7.0 0.00 0.00 0.00 68 1014.4
20260509204750 76 187 4.0 4.0 0.00 0.00 0.00 68 1014.0
20260509204246 75 197 4.0 6.0 0.00 0.00 0.00 66 1013.9
20260509203742 76 187 4.0 4.0 0.00 0.00 0.00 67 1014.0
20260509203240 76 191 5.0 6.0 0.00 0.00 0.00 66 1013.9
20260509202737 76 179 4.0 6.0 0.00 0.00 0.00 64 1013.8
20260509202233 76 195 3.0 6.0 0.00 0.00 0.00 62 1013.6
20260509201727 76 195 3.0 6.0 0.00 0.00 0.00 61 1013.7
20260509201224 76 179 7.0 8.0 0.00 0.00 0.00 65 1013.9
20260509200721 77 194 5.0 6.0 0.00 0.00 0.00 59 1013.8
20260509200221 76 189 2.0 6.0 0.00 0.00 0.00 59 1013.8
20260509195718 76 190 6.0 6.0 0.00 0.00 0.00 63 1014.0
20260509195213 76 182 4.0 7.0 0.00 0.00 0.00 63 1014.4
20260509194712 76 184 2.0 4.0 0.00 0.00 0.00 61 1014.4
20260509194209 76 183 4.0 7.0 0.00 0.00 0.00 60 1014.4
20260509193706 76 202 2.0 6.0 0.00 0.00 0.00 59 1014.6
20260509193201 76 167 1.0 3.0 0.00 0.00 0.00 58 1014.5
20260509192657 75 200 3.0 7.0 0.00 0.00 0.00 62 1014.5
20260509192158 76 232 3.0 4.0 0.00 0.00 0.00 61 1014.5
20260509191653 75 181 4.0 8.0 0.00 0.00 0.00 60 1014.6
20260509191150 76 187 4.0 4.0 0.00 0.00 0.00 61 1014.6
20260509190646 75 192 4.0 7.0 0.00 0.00 0.00 65 1014.9
20260509190143 75 197 4.0 8.0 0.00 0.00 0.00 64 1014.8
20260509185641 75 175 2.0 4.0 0.00 0.00 0.00 61 1014.6
20260509185137 75 178 7.0 8.0 0.00 0.00 0.00 64 1014.9
20260509184635 75 206 4.0 6.0 0.00 0.00 0.00 67 1015.0
20260509184131 75 248 2.0 6.0 0.00 0.00 0.00 64 1014.8
20260509183628 75 191 4.0 6.0 0.00 0.00 0.00 64 1014.9
20260509183123 75 169 3.0 4.0 0.00 0.00 0.00 63 1014.6
20260509182620 75 181 4.0 7.0 0.00 0.00 0.00 64 1014.9
20260509182117 74 191 2.0 6.0 0.00 0.00 0.00 65 1014.9
20260509181615 74 172 4.0 4.0 0.00 0.00 0.00 66 1014.9
20260509181111 74 165 2.0 3.0 0.00 0.00 0.00 65 1014.7
20260509180608 74 177 1.0 2.0 0.00 0.00 0.00 68 1014.8
20260509180105 73 173 5.0 6.0 0.00 0.00 0.00 67 1014.7
20260509175600 74 181 2.0 3.0 0.00 0.00 0.00 69 1014.4
20260509175058 74 155 2.0 2.0 0.00 0.00 0.00 65 1014.5
20260509174554 73 128 1.0 2.0 0.00 0.00 0.00 66 1014.6
20260509174049 73 155 1.0 2.0 0.00 0.00 0.00 66 1014.7
20260509173549 72 152 2.0 3.0 0.00 0.00 0.00 66 1014.9
20260509173046 73 178 4.0 4.0 0.00 0.00 0.00 69 1015.0
20260509172543 73 174 3.0 6.0 0.00 0.00 0.00 67 1015.4
20260509172039 72 197 5.0 7.0 0.00 0.00 0.00 67 1015.3
20260509171535 72 171 2.0 4.0 0.00 0.00 0.00 66 1015.3
20260509171032 72 182 5.0 6.0 0.00 0.00 0.00 72 1015.1
20260509170527 70 148 3.0 4.0 0.00 0.00 0.00 72 1015.3
20260509170023 70 158 3.0 4.0 0.00 0.00 0.00 72 1015.3
20260509165522 69 153 3.0 4.0 0.00 0.00 0.00 73 1015.4
20260509165018 71 171 3.0 4.0 0.00 0.00 0.00 71 1015.3
20260509164514 71 152 4.0 6.0 0.00 0.00 0.00 70 1015.5
20260509164010 71 163 2.0 3.0 0.00 0.00 0.00 72 1015.5
20260509163508 71 166 2.0 3.0 0.00 0.00 0.00 72 1015.6
20260509163008 71 173 3.0 4.0 0.00 0.00 0.00 72 1015.6
20260509162506 71 171 2.0 4.0 0.00 0.00 0.00 73 1015.4
20260509162001 70 165 3.0 4.0 0.00 0.00 0.00 72 1015.6
20260509161458 70 171 1.0 2.0 0.00 0.00 0.00 73 1015.5
20260509160953 69 182 3.0 6.0 0.00 0.00 0.00 74 1015.6
20260509160449 69 194 4.0 6.0 0.00 0.00 0.00 73 1015.8
20260509155944 70 183 4.0 6.0 0.00 0.00 0.00 74 1015.8
20260509155441 69 167 3.0 6.0 0.00 0.00 0.00 74 1015.9
20260509154938 69 181 4.0 6.0 0.00 0.00 0.00 74 1015.9
20260509154434 68 195 4.0 4.0 0.00 0.00 0.00 75 1015.9
20260509153931 68 185 6.0 8.0 0.00 0.00 0.00 77 1016.1
20260509153428 67 190 5.0 7.0 0.00 0.00 0.00 78 1015.9
20260509152925 67 179 4.0 6.0 0.00 0.00 0.00 78 1016.0
20260509152421 66 193 4.0 6.0 0.00 0.00 0.00 79 1016.0
20260509151918 66 186 4.0 6.0 0.00 0.00 0.00 79 1016.1
20260509151414 66 187 3.0 4.0 0.00 0.00 0.00 79 1016.0
20260509150912 66 202 4.0 6.0 0.00 0.00 0.00 79 1015.9
20260509150409 66 185 5.0 7.0 0.00 0.00 0.00 80 1015.9
20260509145908 66 188 5.0 6.0 0.00 0.00 0.00 81 1015.8
20260509145407 66 188 7.0 7.0 0.00 0.00 0.00 82 1015.9
20260509144903 65 186 3.0 6.0 0.00 0.00 0.00 80 1015.9
20260509144400 65 175 4.0 6.0 0.00 0.00 0.00 81 1016.0
20260509143857 65 177 4.0 6.0 0.00 0.00 0.00 82 1016.0
20260509143355 65 190 4.0 6.0 0.00 0.00 0.00 82 1016.1
20260509142851 65 198 5.0 7.0 0.00 0.00 0.00 82 1015.9
20260509142347 65 178 4.0 6.0 0.00 0.00 0.00 81 1015.9
20260509141843 65 195 3.0 6.0 0.00 0.00 0.00 80 1015.6
20260509141340 65 161 2.0 3.0 0.00 0.00 0.00 81 1015.7
20260509140837 65 167 3.0 4.0 0.00 0.00 0.00 81 1015.6
20260509140334 65 164 2.0 4.0 0.00 0.00 0.00 81 1015.6
20260509135832 65 165 2.0 4.0 0.00 0.00 0.00 80 1015.5
20260509135329 65 178 3.0 4.0 0.00 0.00 0.00 81 1015.4
20260509134826 65 164 3.0 3.0 0.00 0.00 0.00 82 1015.2
20260509134323 64 181 2.0 4.0 0.00 0.00 0.00 83 1015.5
20260509133820 63 177 3.0 6.0 0.00 0.00 0.00 84 1015.5
20260509133317 63 197 2.0 4.0 0.00 0.00 0.00 83 1015.3
20260509132815 63 194 2.0 4.0 0.00 0.00 0.00 82 1015.5
20260509132314 64 169 3.0 4.0 0.00 0.00 0.00 83 1015.3
20260509131810 64 175 4.0 4.0 0.00 0.00 0.00 84 1015.4
20260509131307 63 171 3.0 3.0 0.00 0.00 0.00 85 1015.4
20260509130803 62 182 3.0 3.0 0.00 0.00 0.00 87 1015.3
20260509130259 61 168 3.0 3.0 0.00 0.00 0.00 86 1015.3
20260509125756 61 166 2.0 3.0 0.00 0.00 0.00 87 1015.3
20260509125252 61 173 1.0 2.0 0.00 0.00 0.00 87 1015.4
20260509124749 61 165 2.0 3.0 0.00 0.00 0.00 87 1015.9
20260509124245 60 178 2.0 3.0 0.00 0.00 0.00 88 1015.7
20260509123744 60 182 2.0 3.0 0.00 0.00 0.00 88 1015.9